Terug naar catalogus

SL-12 R/B

AUX MOTOR

ActiefHEO
NORAD 36407·ROCKET BODY·🇷🇺 Russia

Gelanceerd Mar 1, 2010 vanaf Baikonur Cosmodrome

Loading…

Volgende Passages (komende 24 uur)

TLE

VersSource: Space-Track

Epoch: Sep 7, 2026, 00:23 UTC

1 36407U 10007H   26250.01629979  .00000003  00000-0 -45077-3 0  9996
2 36407  65.3279 153.9872 5561344 264.3205  33.2516  4.25543054255878

Volg SL-12 R/B in realtime met AllMySat

Download on the App Store